Time,TemperatureF,DewpointF,PressureIn,WindDirection,WindDirectionDegrees,WindSpeedMPH,WindSpeedGustMPH,Humidity,HourlyPrecipIn,Conditions,Clouds,dailyrainin,SolarRadiationWatts/m^2,SoftwareType,DateUTC
2013-06-07 00:03:00,67.0,67.0,-100.00,ESE,117,1.0,3.0,99,0.00,,,0.82,0.000000,,2013-06-07 04:03:00,
2013-06-07 00:33:00,66.0,66.0,-100.00,ESE,109,1.0,4.0,99,0.00,,,0.72,0.000000,,2013-06-07 04:33:00,
2013-06-07 00:42:00,66.0,66.0,-100.00,ESE,109,1.0,4.0,99,0.00,,,0.72,0.000000,,2013-06-07 04:42:00,
2013-06-07 00:53:00,66.0,66.0,-100.00,ESE,109,1.0,4.0,99,0.00,,,0.72,0.000000,,2013-06-07 04:53:00,
2013-06-07 01:03:00,66.0,66.0,-100.00,ESE,109,1.0,4.0,99,0.00,,,0.72,0.000000,,2013-06-07 05:03:00,
2013-06-07 01:32:00,66.0,66.0,-100.00,ENE,57,0.0,2.0,100,0.05,,,0.67,0.000000,,2013-06-07 05:32:00,
2013-06-07 01:43:00,66.0,66.0,-100.00,ENE,57,0.0,2.0,100,0.05,,,0.67,0.000000,,2013-06-07 05:43:00,
2013-06-07 01:52:00,66.0,66.0,-100.00,ENE,57,0.0,2.0,100,0.05,,,0.67,0.000000,,2013-06-07 05:52:00,
2013-06-07 02:02:00,66.0,66.0,-100.00,ENE,57,0.0,2.0,100,0.05,,,0.67,0.000000,,2013-06-07 06:02:00,
2013-06-07 02:32:00,66.0,66.0,-100.00,ESE,120,1.0,5.0,100,0.10,,,0.77,0.000000,,2013-06-07 06:32:00,
2013-06-07 02:43:00,66.0,66.0,-100.00,ESE,120,1.0,5.0,100,0.10,,,0.77,0.000000,,2013-06-07 06:43:00,
2013-06-07 02:52:00,66.0,66.0,-100.00,ESE,120,1.0,5.0,100,0.10,,,0.77,0.000000,,2013-06-07 06:52:00,
2013-06-07 03:02:00,66.0,66.0,-100.00,ESE,120,1.0,5.0,100,0.10,,,0.77,0.000000,,2013-06-07 07:02:00,
2013-06-07 03:32:00,65.0,65.0,-100.00,WNW,299,1.0,4.0,100,0.05,,,0.82,0.000000,,2013-06-07 07:32:00,
2013-06-07 03:42:00,65.0,65.0,-100.00,WNW,299,1.0,4.0,100,0.05,,,0.82,0.000000,,2013-06-07 07:42:00,
2013-06-07 03:52:00,65.0,65.0,-100.00,WNW,299,1.0,4.0,100,0.05,,,0.82,0.000000,,2013-06-07 07:52:00,
2013-06-07 04:02:00,65.0,65.0,-100.00,WNW,299,1.0,4.0,100,0.05,,,0.82,0.000000,,2013-06-07 08:02:00,
2013-06-07 04:32:00,65.0,65.0,-100.00,WNW,303,0.0,0.0,100,0.02,,,0.84,0.000000,,2013-06-07 08:32:00,
2013-06-07 04:43:00,65.0,65.0,-100.00,WNW,303,0.0,0.0,100,0.02,,,0.84,0.000000,,2013-06-07 08:43:00,
2013-06-07 04:52:00,65.0,65.0,-100.00,WNW,303,0.0,0.0,100,0.02,,,0.84,0.000000,,2013-06-07 08:52:00,
2013-06-07 05:02:00,65.0,65.0,-100.00,WNW,303,0.0,0.0,100,0.02,,,0.84,0.000000,,2013-06-07 09:02:00,
2013-06-07 05:32:00,65.0,65.0,-100.00,NW,306,0.0,0.0,100,0.01,,,0.84,0.000000,,2013-06-07 09:32:00,
2013-06-07 05:43:00,65.0,65.0,-100.00,NW,306,0.0,0.0,100,0.01,,,0.84,0.000000,,2013-06-07 09:43:00,
2013-06-07 05:53:00,65.0,65.0,-100.00,NW,306,0.0,0.0,100,0.01,,,0.84,0.000000,,2013-06-07 09:53:00,
2013-06-07 06:03:00,65.0,65.0,-100.00,NW,306,0.0,0.0,100,0.01,,,0.84,0.000000,,2013-06-07 10:03:00,
2013-06-07 06:33:00,65.0,65.0,-100.00,NW,306,0.0,0.0,100,0.01,,,0.85,0.000000,,2013-06-07 10:33:00,
2013-06-07 06:43:00,65.0,65.0,-100.00,NW,306,0.0,0.0,100,0.01,,,0.85,0.000000,,2013-06-07 10:43:00,
2013-06-07 06:53:00,65.0,65.0,-100.00,NW,306,0.0,0.0,100,0.01,,,0.85,0.000000,,2013-06-07 10:53:00,
2013-06-07 07:02:00,65.0,65.0,-100.00,NW,306,0.0,0.0,100,0.01,,,0.85,0.000000,,2013-06-07 11:02:00,
2013-06-07 07:32:00,65.0,65.0,-100.00,NW,315,0.0,0.0,100,0.01,,,0.86,4.000000,,2013-06-07 11:32:00,
2013-06-07 07:42:00,65.0,65.0,-100.00,NW,315,0.0,0.0,100,0.01,,,0.86,4.000000,,2013-06-07 11:42:00,
2013-06-07 07:52:00,65.0,65.0,-100.00,NW,315,0.0,0.0,100,0.01,,,0.86,4.000000,,2013-06-07 11:52:00,
2013-06-07 08:02:00,65.0,65.0,-100.00,NW,315,0.0,0.0,100,0.01,,,0.86,4.000000,,2013-06-07 12:02:00,
2013-06-07 08:33:00,65.0,65.0,-100.00,WNW,290,0.0,2.0,100,0.00,,,0.86,43.000000,,2013-06-07 12:33:00,
2013-06-07 08:42:00,65.0,65.0,-100.00,WNW,290,0.0,2.0,100,0.00,,,0.86,43.000000,,2013-06-07 12:42:00,
2013-06-07 08:52:00,65.0,65.0,-100.00,WNW,290,0.0,2.0,100,0.00,,,0.86,43.000000,,2013-06-07 12:52:00,
2013-06-07 09:02:00,65.0,65.0,-100.00,WNW,290,0.0,2.0,100,0.00,,,0.86,43.000000,,2013-06-07 13:02:00,
2013-06-07 09:32:00,67.0,67.0,-100.00,NW,325,1.0,2.0,100,0.00,,,0.86,120.000000,,2013-06-07 13:32:00,
2013-06-07 09:43:00,67.0,67.0,-100.00,NW,325,1.0,2.0,100,0.00,,,0.86,120.000000,,2013-06-07 13:43:00,
2013-06-07 09:52:00,67.0,67.0,-100.00,NW,325,1.0,2.0,100,0.00,,,0.86,120.000000,,2013-06-07 13:52:00,
2013-06-07 10:02:00,67.0,67.0,-100.00,NW,325,1.0,2.0,100,0.00,,,0.86,120.000000,,2013-06-07 14:02:00,
2013-06-07 10:33:00,70.0,70.0,-100.00,ESE,119,0.0,3.0,100,0.00,,,0.86,187.000000,,2013-06-07 14:33:00,
2013-06-07 10:42:00,70.0,70.0,-100.00,ESE,119,0.0,3.0,100,0.00,,,0.86,187.000000,,2013-06-07 14:42:00,
2013-06-07 10:52:00,70.0,70.0,-100.00,ESE,119,0.0,3.0,100,0.00,,,0.86,187.000000,,2013-06-07 14:52:00,
2013-06-07 11:03:00,70.0,70.0,-100.00,ESE,119,0.0,3.0,100,0.00,,,0.86,187.000000,,2013-06-07 15:03:00,
2013-06-07 11:33:00,73.0,72.0,-100.00,WNW,282,1.0,3.0,96,0.00,,,-99.99,332.000000,,2013-06-07 15:33:00,
2013-06-07 11:43:00,73.0,72.0,-100.00,WNW,282,1.0,3.0,96,0.00,,,-99.99,332.000000,,2013-06-07 15:43:00,
2013-06-07 11:53:00,73.0,72.0,-100.00,WNW,282,1.0,3.0,96,0.00,,,-99.99,332.000000,,2013-06-07 15:53:00,
2013-06-07 12:03:00,73.0,72.0,-100.00,WNW,282,1.0,3.0,96,0.00,,,-99.99,332.000000,,2013-06-07 16:03:00,
2013-06-07 12:33:00,77.0,72.0,-100.00,West,275,2.0,5.0,86,0.00,,,0.69,614.000000,,2013-06-07 16:33:00,
2013-06-07 12:43:00,77.0,72.0,-100.00,West,275,2.0,5.0,86,0.00,,,0.69,614.000000,,2013-06-07 16:43:00,
2013-06-07 12:53:00,77.0,72.0,-100.00,West,275,2.0,5.0,86,0.00,,,0.69,614.000000,,2013-06-07 16:53:00,
2013-06-07 13:03:00,77.0,72.0,-100.00,West,275,2.0,5.0,86,0.00,,,0.69,614.000000,,2013-06-07 17:03:00,
2013-06-07 14:06:00,80.0,71.0,-100.00,East,84,2.0,5.0,73,-99.99,,,0.68,572.000000,,2013-06-07 18:06:00,
2013-06-07 14:38:00,80.0,71.0,-100.00,East,84,2.0,5.0,73,-99.99,,,0.68,572.000000,,2013-06-07 18:38:00,
2013-06-07 14:45:00,80.0,71.0,-100.00,East,84,2.0,5.0,73,-99.99,,,0.68,572.000000,,2013-06-07 18:45:00,
2013-06-07 15:06:00,73.0,65.0,-100.00,NNW,331,3.0,5.0,76,0.02,,,0.70,432.000000,,2013-06-07 19:06:00,
2013-06-07 15:40:00,73.0,65.0,-100.00,NNW,331,3.0,5.0,76,0.02,,,0.70,432.000000,,2013-06-07 19:40:00,
2013-06-07 16:06:00,76.0,69.0,-100.00,ESE,114,2.0,5.0,78,0.00,,,0.70,526.000000,,2013-06-07 20:06:00,
2013-06-07 16:52:00,76.0,69.0,-100.00,ESE,114,2.0,5.0,78,0.00,,,0.70,526.000000,,2013-06-07 20:52:00,
2013-06-07 16:59:00,76.0,69.0,-100.00,ESE,114,2.0,5.0,78,0.00,,,0.70,526.000000,,2013-06-07 20:59:00,
2013-06-07 17:06:00,80.0,73.0,-100.00,SE,130,2.0,4.0,79,0.00,,,0.67,476.000000,,2013-06-07 21:06:00,
2013-06-07 17:43:00,80.0,73.0,-100.00,SE,130,2.0,4.0,79,0.00,,,0.67,476.000000,,2013-06-07 21:43:00,
2013-06-07 18:03:00,80.0,73.0,-100.00,SE,130,2.0,4.0,79,0.00,,,0.67,476.000000,,2013-06-07 22:03:00,
2013-06-07 18:06:00,77.0,68.0,-100.00,East,91,1.0,4.0,74,0.00,,,-99.99,348.000000,,2013-06-07 22:06:00,
2013-06-07 18:39:00,77.0,68.0,-100.00,East,91,1.0,4.0,74,0.00,,,-99.99,348.000000,,2013-06-07 22:39:00,
2013-06-07 18:49:00,77.0,68.0,-100.00,East,91,1.0,4.0,74,0.00,,,-99.99,348.000000,,2013-06-07 22:49:00,
2013-06-07 19:00:00,77.0,68.0,-100.00,East,91,1.0,4.0,74,0.00,,,-99.99,348.000000,,2013-06-07 23:00:00,
2013-06-07 19:06:00,70.0,64.0,-100.00,WNW,285,3.0,9.0,81,0.01,,,0.67,52.000000,,2013-06-07 23:06:00,
2013-06-07 19:41:00,70.0,64.0,-100.00,WNW,285,3.0,9.0,81,0.01,,,0.67,52.000000,,2013-06-07 23:41:00,
2013-06-07 19:55:00,70.0,64.0,-100.00,WNW,285,3.0,9.0,81,0.01,,,0.67,52.000000,,2013-06-07 23:55:00,
2013-06-07 20:05:00,70.0,64.0,-100.00,WNW,285,3.0,9.0,81,0.01,,,0.67,52.000000,,2013-06-08 00:05:00,
2013-06-07 20:06:00,65.0,64.0,-100.00,WNW,299,3.0,6.0,97,0.06,,,0.73,14.000000,,2013-06-08 00:06:00,
2013-06-07 20:37:00,65.0,64.0,-100.00,WNW,299,3.0,6.0,97,0.06,,,0.73,14.000000,,2013-06-08 00:37:00,
2013-06-07 20:48:00,65.0,64.0,-100.00,WNW,299,3.0,6.0,97,0.06,,,0.73,14.000000,,2013-06-08 00:48:00,
2013-06-07 21:02:00,65.0,64.0,-100.00,WNW,299,3.0,6.0,97,0.06,,,0.73,14.000000,,2013-06-08 01:02:00,
2013-06-07 21:06:00,65.0,64.0,-100.00,NW,319,3.0,5.0,98,0.02,,,0.53,11.000000,,2013-06-08 01:06:00,
2013-06-07 21:40:00,65.0,64.0,-100.00,NW,319,3.0,5.0,98,0.02,,,0.53,11.000000,,2013-06-08 01:40:00,
2013-06-07 21:49:00,65.0,64.0,-100.00,NW,319,3.0,5.0,98,0.02,,,0.53,11.000000,,2013-06-08 01:49:00,
2013-06-07 22:06:00,65.0,64.0,-100.00,NNW,330,2.0,4.0,98,0.00,,,0.36,0.000000,,2013-06-08 02:06:00,
2013-06-07 22:37:00,65.0,64.0,-100.00,NNW,330,2.0,4.0,98,0.00,,,0.36,0.000000,,2013-06-08 02:37:00,
2013-06-07 22:49:00,65.0,64.0,-100.00,NNW,330,2.0,4.0,98,0.00,,,0.36,0.000000,,2013-06-08 02:49:00,
2013-06-07 23:00:00,65.0,64.0,-100.00,NNW,330,2.0,4.0,98,0.00,,,0.36,0.000000,,2013-06-08 03:00:00,
2013-06-07 23:40:00,65.0,64.0,-100.00,WNW,286,0.0,2.0,98,0.00,,,0.36,0.000000,,2013-06-08 03:40:00,
2013-06-07 23:54:00,65.0,64.0,-100.00,WNW,286,0.0,2.0,98,0.00,,,0.36,0.000000,,2013-06-08 03:54:00,